#timestamp,LO_Frequency,Hit,StdDev 
1557619215.2,286046991.3,N
1557619235.0,286046996.6,N
1557619235.9,286046996.6,N
1557619255.8,286047008.6,N
1557619275.6,286047012.1,N
1557619295.5,286047021.5,N
1557619315.3,286047029.7,N
1557619335.1,286047032.4,N
1557619355.9,286047030.4,N
1557619375.7,286047023.6,N
1557619395.5,286047018.6,N
1557619415.4,286047009.8,N
1557619435.2,286047006.6,N
1557619455.1,286047016.4,N
1557619456.0,286047016.4,N
1557619475.8,286047011.9,N
1557619495.6,286047008.7,N
1557619515.5,286047010.8,N
1557619535.3,286047007.3,N
1557619555.1,286047014.8,N
1557619575.9,286047018.5,N
1557619595.7,286047014.5,N
1557619615.6,286047019.4,N
1557619635.4,286047014.0,N
1557619655.2,286047006.3,N
1557619675.1,286047006.9,N
1557619676.0,286047006.9,N
1557619695.8,286047011.5,N
1557619715.7,286047020.3,N
1557619735.5,286047025.5,N
1557619755.3,286047023.0,N
1557619775.2,286047017.5,N
1557619795.0,286047018.4,N
1557619795.9,286047018.4,N
1557619815.7,286047011.9,N
1557619835.6,286047015.1,N
1557619855.4,286047027.9,Y
1557619875.3,286047012.2,P
1557619895.1,286047004.4,N
1557619915.8,286046999.5,N
1557619935.7,286046998.0,N
1557619955.5,286046996.2,N
1557619975.4,286046996.1,N
1557619995.2,286046995.2,N
1557620015.0,286046998.4,N
1557620015.9,286046998.4,N
1557620035.8,286046997.9,N
1557620055.6,286047003.3,N
1557620075.4,286047010.2,N
1557620095.3,286047001.8,N
1557620115.1,286047001.0,N
1557620135.9,286046992.2,N
1557620155.7,286046992.1,N
1557620175.5,286046990.1,N
1557620195.4,286046996.5,N
1557620215.2,286047003.1,N
1557620235.1,286046995.1,N
1557620236.0,286046995.1,N
1557620255.8,286046994.4,N
1557620275.6,286046990.6,N
1557620295.5,286046989.6,N
1557620315.3,286046994.2,N
1557620335.1,286046996.3,N
1557620355.9,286046997.7,N
1557620375.7,286046997.7,N
1557620395.6,286046996.0,N
1557620415.4,286046994.8,N
1557620435.2,286046992.0,N
1557620455.1,286046992.2,N
1557620456.0,286046992.2,N
1557620475.8,286046992.1,N
1557620495.7,286046992.7,N
1557620515.5,286046992.1,N
1557620535.3,286046996.1,N
1557620555.2,286046995.4,N
1557620575.0,286047001.0,N
1557620575.9,286047001.0,N
1557620595.8,286047000.3,N
1557620615.6,286047000.9,N
1557620635.4,286047000.9,N
1557620655.3,286047003.4,N
1557620675.1,286047005.8,N
1557620695.8,286047004.8,N
1557620715.7,286047006.5,N
1557620735.5,286047008.2,N
1557620755.4,286047011.3,N
1557620775.2,286047013.3,N
1557620795.1,286047012.6,N
1557620796.0,286047012.6,N
1557620815.8,286047016.4,N
1557620835.6,286047019.3,N
1557620855.5,286047022.3,N
1557620875.3,286047024.9,N
1557620895.1,286047021.8,N
1557620915.9,286047021.3,N
1557620935.7,286047022.7,N
1557620955.6,286047024.9,N
1557620975.4,286047022.2,N
1557620995.2,286047022.4,N
1557621015.1,286047039.5,Y
1557621016.0,286047039.5,P
1557621035.8,286047034.6,N
1557621055.7,286047028.1,N
1557621075.5,286047022.4,N
1557621095.3,286047024.1,N
1557621115.2,286047020.6,N
1557621135.0,286047023.2,N
1557621135.9,286047023.2,N
1557621155.7,286047026.7,Y
1557621175.6,286046996.5,P
1557621195.4,286046994.9,N
1557621215.3,286047004.7,N
1557621235.1,286047004.1,N
1557621236.0,286047004.1,N
1557621255.8,286047000.9,N
1557621275.7,286047002.4,N
1557621295.5,286047002.7,N
1557621315.3,286047005.5,N
1557621335.2,286047003.1,N
1557621355.0,286047002.7,N
1557621355.9,286047002.7,N
1557621375.8,286046995.0,N
1557621395.6,286046996.3,N
1557621415.4,286046997.8,N
1557621435.3,286046996.9,N
1557621455.1,286047009.0,N
1557621475.9,286047015.1,N
1557621495.7,286047007.9,N
1557621515.5,286047005.3,N
1557621535.4,286047007.3,N
1557621555.2,286047005.6,N
1557621575.0,286046999.8,N
1557621576.0,286046999.8,N
1557621595.8,286047013.4,N
1557621615.6,286047009.9,N
1557621635.5,286047005.5,N
1557621655.3,286046998.1,N
1557621675.1,286047004.0,N
1557621695.9,286047003.7,N
1557621715.7,286047001.6,N
1557621735.6,286047002.3,N
1557621755.4,286047003.2,N
1557621775.2,286047004.5,N
1557621795.1,286047007.5,N
1557621796.0,286047007.5,N
1557621815.8,286047007.8,N
1557621835.6,286047012.0,N
1557621855.5,286047008.3,N
1557621875.3,286047009.4,N
1557621895.2,286047010.1,N
1557621915.9,286047006.9,N
1557621935.7,286047003.3,N
1557621955.6,286047006.9,N
1557621975.4,286047010.7,N
1557621995.2,286047017.2,Y
1557622015.1,286047005.3,P
1557622016.0,286047005.3,P
1557622035.8,286047008.7,P
1557622055.7,286047010.8,Y
1557622075.5,286047003.6,P
1557622095.3,286047004.9,P
1557622115.2,286047004.6,P
1557622135.0,286047004.6,Y
1557622135.9,286047004.6,P
1557622155.8,286047005.5,P
1557622175.6,286047007.5,P
1557622195.4,286047007.6,Y
1557622215.3,286047002.8,P
1557622235.1,286047001.0,N
1557622255.9,286046999.6,N
1557622275.7,286047000.3,N
1557622295.5,286046997.3,N
1557622315.4,286047000.7,N
1557622335.2,286046995.1,N
1557622355.0,286047000.6,N
1557622355.9,286047000.6,N
1557622375.8,286047002.0,N
1557622395.6,286047001.1,N
1557622415.5,286046998.1,N
1557622435.3,286047001.6,N
1557622455.1,286047003.0,N
1557622475.9,286047005.0,N
1557622495.7,286047005.6,N
1557622515.5,286047003.3,N
1557622535.4,286047006.1,N
1557622555.2,286047007.9,N
1557622575.1,286047011.4,Y
1557622576.0,286047011.4,P
1557622595.8,286047010.6,N
1557622615.6,286047006.3,N
1557622635.5,286047008.1,N
1557622655.3,286047007.7,N
1557622675.2,286047010.7,Y
1557622695.9,286047011.9,P
1557622715.7,286047003.5,N
1557622735.6,286046999.3,N
1557622755.4,286046997.5,N
1557622775.3,286046998.2,N
1557622795.1,286046997.8,N
